Weather History for Ashland, WI

Change the Weather History Date:

Thursday, February 27, 2014

  Actual Average Record
Temperature  
Mean Temperature -10 °F -  
Max Temperature 0 °F 34 °F 47 °F (1976)
Min Temperature -20 °F 10 °F -20 °F (2014)
Degree Days  
Heating Degree Days 75    
Moisture  
Dew Point -21 °F    
Average Humidity 58    
Maximum Humidity 79    
Minimum Humidity 31    
Precipitation  
Precipitation 0.00 in - - ()
Sea Level Pressure  
Sea Level Pressure 30.12 in    
Wind  
Wind Speed 11 mph (WNW)    
Max Wind Speed 18 mph    
Max Gust Speed 25 mph    
Visibility 9 miles    
Events      
Averages and records for this station are not official NWS values.
T = Trace of Precipitation, MM = Missing Value Source: NWS Daily Summary

Daily Weather History Graph

Daily Weather History Graph

Search for Another Location

Airport:

Trip Planner

Search our weather history database for the weather conditions in past years. The results will help you decide how hot, cold, wet, or windy it might be!

Date:

Astronomy

Feb. 27, 2014 Rise Set
Actual Time 6:46 AM CST 5:46 PM CST
Civil Twilight 6:16 AM CST 6:17 PM CST
Nautical Twilight 5:41 AM CST 6:52 PM CST
Astronomical Twilight 5:06 AM CST 7:27 PM CST
Moon 5:23 AM CST (2/27) 4:09 PM CST (2/27)
Length of Visible Light 12h 00m
Length of Day
11h 00m
Waning Crescent, 4% of the Moon is Illuminated
Feb 27
Waning Crescent
Mar 1
New
Mar 8
First Quarter
Mar 16
Full
Mar 23
Last Quarter

Hourly Weather History & Observations

Time (CST) Temp. Windchill Dew Point Humidity Pressure Visibility Wind Dir Wind Speed Gust Speed Precip Events Conditions
12:53 AM -4.0 °F -26.4 °F -18.0 °F 51% 29.90 in 10.0 mi NW 18.4 mph 25.3 mph N/A   Clear
1:53 AM -6.0 °F -27.0 °F -17.0 °F 59% 29.94 in 9.0 mi NW 15.0 mph 25.3 mph N/A   Clear
2:22 AM -7.1 °F -23.9 °F -17.0 °F 62% 29.89 in 9.0 mi NNW 9.2 mph 20.7 mph N/A   Mostly Cloudy
2:53 AM -7.1 °F -26.8 °F -16.1 °F 65% 29.99 in 5.0 mi NNW 12.7 mph 23.0 mph N/A   Haze
3:53 AM -9.0 °F -28.4 °F -15.0 °F 75% 30.02 in 3.0 mi NW 11.5 mph - N/A   Haze
4:32 AM -9.9 °F -32.1 °F -17.0 °F 71% 29.98 in 6.0 mi NW 15.0 mph - N/A   Haze
4:53 AM -11.0 °F -34.9 °F -18.0 °F 71% 30.06 in 7.0 mi NW 17.3 mph 25.3 mph N/A   Overcast
5:17 AM -11.0 °F -30.9 °F -18.9 °F 68% 30.00 in 9.0 mi NW 11.5 mph 21.9 mph N/A   Scattered Clouds
5:53 AM -14.1 °F -29.9 °F -18.9 °F 79% 30.11 in 10.0 mi WNW 6.9 mph - N/A   Clear
6:18 AM -13.0 °F -28.6 °F -20.0 °F 71% 30.05 in 10.0 mi West 6.9 mph - N/A   Mostly Cloudy
6:53 AM -14.1 °F -29.9 °F -20.0 °F 75% 30.15 in 6.0 mi WNW 6.9 mph - N/A   Haze
7:10 AM -13.0 °F -31.3 °F -20.0 °F 71% 30.07 in 3.0 mi NW 9.2 mph - N/A   Haze
7:53 AM -13.0 °F -31.3 °F -20.9 °F 68% 30.17 in 7.0 mi WNW 9.2 mph - N/A   Overcast
8:10 AM -13.0 °F -30.0 °F -22.0 °F 64% 30.11 in 10.0 mi WNW 8.1 mph - N/A   Scattered Clouds
8:53 AM -11.9 °F -32.0 °F -23.1 °F 58% 30.20 in 10.0 mi WNW 11.5 mph - N/A   Clear
9:53 AM -9.9 °F -26.3 °F -22.0 °F 55% 30.21 in 10.0 mi WNW 8.1 mph - N/A   Clear
10:53 AM -8.0 °F -22.5 °F -20.9 °F 53% 30.21 in 10.0 mi WNW 6.9 mph - N/A   Clear
11:53 AM -7.1 °F -21.4 °F -20.9 °F 51% 30.22 in 10.0 mi SW 6.9 mph - N/A   Clear
12:53 PM -4.0 °F -21.2 °F -22.0 °F 42% 30.20 in 10.0 mi WSW 10.4 mph - N/A   Clear
1:53 PM -2.9 °F -19.8 °F -22.0 °F 40% 30.19 in 10.0 mi WSW 10.4 mph - N/A   Clear
2:53 PM -2.0 °F -15.4 °F -22.0 °F 38% 30.18 in 10.0 mi WSW 6.9 mph - N/A   Clear
3:53 PM -0.9 °F -15.3 °F -25.1 °F 31% 30.19 in 10.0 mi West 8.1 mph - N/A   Clear
4:53 PM -0.9 °F -14.1 °F -24.0 °F 33% 30.18 in 10.0 mi West 6.9 mph - N/A   Clear
5:53 PM -4.0 °F -12.4 °F -24.0 °F 38% 30.19 in 10.0 mi West 3.5 mph - N/A   Clear
6:53 PM -9.9 °F - -25.1 °F 47% 30.20 in 10.0 mi Calm Calm - N/A   Clear
7:53 PM -14.1 °F -23.9 °F -26.0 °F 55% 30.20 in 10.0 mi SW 3.5 mph - N/A   Clear
8:53 PM -15.0 °F -25.0 °F -27.0 °F 55% 30.20 in 10.0 mi SW 3.5 mph - N/A   Clear
9:53 PM -20.0 °F -35.3 °F -27.0 °F 70% 30.20 in 10.0 mi SSW 5.8 mph - N/A   Clear
10:53 PM -18.9 °F - -27.9 °F 63% 30.20 in 10.0 mi Calm Calm - N/A   Clear
11:53 PM -17.0 °F - -27.0 °F 60% 30.19 in 10.0 mi Calm Calm - N/A   Clear